This demonstration page uses our WeatherBlox Daily Observations layout. Learn more.

Left ArrowRight Arrow

39.51506, -84.39828

Hourly Observations for October 22, 2015

Temp ( °F °C ) Dew Point ( °F °C ) Humidity (%) Winds ( mph kmh ) Pressure ( in mb ) Visibility ( mi km ) Precip ( " mm )
12:15 am 00:15 Clear 55 12.5 49 9.2 80 80 N N/A 30.24 1024 10 16 N/A
12:35 am 00:35 Clear 55 12.5 48 9.1 80 80 N N/A 30.24 1024 10 16 N/A
12:55 am 00:55 Clear 52 11.1 47 8.6 85 85 N N/A 30.24 1024 10 16 N/A
1:15 am 01:15 Clear 52 11 47 8.5 85 85 N N/A 30.24 1024 10 16 N/A
1:35 am 01:35 Clear 53 11.7 48 9 84 84 N N/A 30.24 1024 10 16 N/A
1:55 am 01:55 Clear 52 11 47 8.1 82 82 N N/A 30.24 1024 10 16 N/A
2:15 am 02:15 Clear 52 11 47 8.5 85 85 N N/A 30.24 1024 10 16 N/A
2:35 am 02:35 Clear 52 11 48 8.7 86 86 N N/A 30.24 1024 10 16 N/A
2:55 am 02:55 Clear 52 11 47 8.6 85 85 N N/A 30.24 1024 10 16 N/A
3:15 am 03:15 Clear 49 9.6 46 7.5 87 87 N N/A 30.24 1024 10 16 N/A
3:35 am 03:35 Clear 50 10.2 47 8.4 89 89 N N/A 30.24 1024 10 16 N/A
3:55 am 03:55 Clear 49 9.6 46 7.9 89 89 N N/A 30.21 1023 10 16 N/A
4:15 am 04:15 Clear 49 9.6 46 8 90 90 N N/A 30.21 1023 10 16 N/A
4:35 am 04:35 Clear 50 9.8 46 7.9 88 88 SW 5 7 30.21 1023 10 16 N/A
4:55 am 04:55 Clear 52 11 48 8.7 86 86 SW 5 7 30.21 1023 10 16 N/A
5:15 am 05:15 Clear 51 10.3 47 8.1 86 86 WSW 3 6 30.21 1023 10 16 N/A
5:35 am 05:35 Clear 50 10.1 47 8.1 88 88 SW 3 6 30.21 1023 10 16 N/A
5:55 am 05:55 Mostly Cloudy 50 9.8 46 7.8 87 87 N N/A 30.21 1023 10 16 N/A
6:15 am 06:15 Cloudy 50 10.1 47 8.1 88 88 N N/A 30.21 1023 10 16 N/A
6:35 am 06:35 Mostly Cloudy 52 11 48 9 88 88 SW 5 7 30.24 1024 10 16 N/A
6:55 am 06:55 Partly Cloudy 53 11.6 49 9.3 86 86 N N/A 30.24 1024 10 16 N/A
7:15 am 07:15 Partly Cloudy 52 11.1 48 8.9 86 86 N N/A 30.24 1024 10 16 N/A
7:35 am 07:35 Partly Cloudy 53 11.6 48 9.1 85 85 SW 5 7 30.24 1024 10 16 N/A
7:55 am 07:55 Sunny 51 10.6 47 8.3 86 86 N N/A 30.24 1024 10 16 N/A
8:15 am 08:15 Sunny 55 12.5 50 10.2 86 86 SW 5 7 30.24 1024 10 16 N/A
8:35 am 08:35 Sunny 55 12.5 50 10.2 86 86 W 5 7 30.24 1024 10 16 N/A
8:55 am 08:55 Sunny 57 13.8 52 11 83 83 SW 5 7 30.24 1024 7 11 N/A
9:15 am 09:15 Sunny 60 15.3 53 11.7 79 79 SW 6 9 30.24 1024 10 16 N/A
9:35 am 09:35 Sunny 60 15.3 52 11 76 76 N N/A 30.27 1025 10 16 N/A
9:55 am 09:55 Sunny 62 16.4 52 11.1 71 71 N N/A 30.27 1025 10 16 N/A
10:15 am 10:15 Sunny 64 18 53 11.4 66 66 SW 6 9 30.24 1024 10 16 N/A
10:35 am 10:35 Sunny 67 19.5 54 12.1 62 62 SW 8 13 30.24 1024 10 16 N/A
10:55 am 10:55 Sunny 69 20.8 55 12.7 60 60 SW 7 11 30.24 1024 10 16 N/A
11:15 am 11:15 Sunny 69 20.8 54 12.1 58 58 WSW 6 9 30.24 1024 10 16 N/A
11:35 am 11:35 Sunny 71 21.7 54 12 54 54 SW 6 9 30.24 1024 10 16 N/A
11:55 am 11:55 Sunny 74 23.6 56 13.1 52 52 WNW 3 6 30.24 1024 10 16 N/A
12:15 pm 12:15 Sunny 74 23.6 55 12.5 50 50 SW 7 11 30.21 1023 10 16 N/A
12:35 pm 12:35 Sunny 77 24.8 55 12.8 47 47 W 5 7 30.21 1023 10 16 N/A
12:55 pm 12:55 Sunny 77 25.1 54 12.1 44 44 SSW 3 6 30.21 1023 10 16 N/A
1:15 pm 13:15 Sunny 79 25.9 54 12.2 43 43 WSW 3 6 30.21 1023 10 16 N/A
1:35 pm 13:35 Sunny 80 26.5 54 12.3 41 41 WSW 8 13 30.21 1023 10 16 N/A
1:55 pm 13:55 Sunny 80 26.5 53 11.9 40 40 WSW 10 17 30.21 1023 10 16 N/A
2:15 pm 14:15 Sunny 80 26.5 53 11.4 39 39 WSW 10 17 30.18 1022 10 16 N/A
2:35 pm 14:35 Sunny 80 26.5 52 11.3 39 39 W 7 11 30.18 1022 10 16 N/A
2:55 pm 14:55 Sunny 81 27.2 52 11.2 37 37 WSW 8 13 30.18 1022 10 16 N/A
3:15 pm 15:15 Sunny 81 27.2 53 11.5 38 38 SW 8 13 30.18 1022 10 16 N/A
3:35 pm 15:35 Sunny 81 27.4 53 11.6 37 37 SW 9 15 30.15 1021 10 16 N/A
3:55 pm 15:55 Partly Cloudy 82 27.5 53 11.4 37 37 WSW 7 11 30.15 1021 10 16 N/A
4:15 pm 16:15 Partly Cloudy 82 27.6 53 11.6 37 37 SW 7 11 30.15 1021 10 16 N/A
4:35 pm 16:35 Sunny 82 28 53 11.5 36 36 WSW 7 11 30.15 1021 10 16 N/A
4:55 pm 16:55 Partly Cloudy 81 27.2 53 11.9 39 39 SW 6 9 30.15 1021 10 16 N/A
5:15 pm 17:15 Partly Cloudy 80 26.5 53 11.6 39 39 W 5 7 30.15 1021 10 16 N/A
5:35 pm 17:35 Partly Cloudy 80 26.5 54 12.2 41 41 W 5 7 30.15 1021 10 16 N/A
5:55 pm 17:55 Partly Cloudy 80 26.5 54 12.3 41 41 WNW 3 6 30.15 1021 10 16 N/A
6:15 pm 18:15 Partly Cloudy 78 25.3 55 12.8 46 46 NNW 3 6 30.15 1021 10 16 N/A
6:35 pm 18:35 Partly Cloudy 77 25.1 56 13.3 48 48 N N/A 30.15 1021 10 16 N/A
6:55 pm 18:55 Partly Cloudy 74 23.6 58 14.2 56 56 N N/A 30.18 1022 10 16 N/A
7:15 pm 19:15 Clear 69 20.8 57 13.8 64 64 N N/A 30.18 1022 10 16 N/A
7:35 pm 19:35 Partly Cloudy 69 20.8 58 14.4 67 67 N N/A 30.18 1022 10 16 N/A
7:55 pm 19:55 Clear 72 22.3 57 13.8 59 59 N 7 11 30.18 1022 10 16 N/A
8:15 pm 20:15 Clear 71 21.8 55 12.7 56 56 NNE 7 11 30.18 1022 10 16 N/A
8:35 pm 20:35 Clear 69 20.8 54 12.1 58 58 NNE 7 11 30.21 1023 10 16 N/A
8:55 pm 20:55 Clear 69 20.8 54 12.3 58 58 NNE 8 13 30.21 1023 10 16 N/A
9:15 pm 21:15 Clear 69 20.8 55 13 61 61 NE 6 9 30.21 1023 10 16 N/A
9:35 pm 21:35 Clear 67 19.6 55 12.6 64 64 NE 6 9 30.21 1023 10 16 N/A
9:55 pm 21:55 Clear 67 19.5 55 12.6 65 65 NNE 5 7 30.21 1023 10 16 N/A
10:15 pm 22:15 Clear 64 18 53 11.5 66 66 N 6 9 30.21 1023 10 16 N/A
10:35 pm 22:35 Partly Cloudy 64 18 53 11.6 66 66 N N/A 30.21 1023 10 16 N/A
10:55 pm 22:55 Mostly Cloudy 64 18 52 11 64 64 NNE 7 11 30.21 1023 10 16 N/A
11:15 pm 23:15 Cloudy 64 18 52 10.9 63 63 NNE 3 6 30.24 1024 10 16 N/A
11:35 pm 23:35 Cloudy 64 18 52 11 64 64 N N/A 30.24 1024 10 16 N/A
11:55 pm 23:55 Mostly Cloudy 64 17.5 51 10.8 65 65 N N/A 30.24 1024 10 16 N/A

Powered by AerisWeather